This demonstration page uses our WeatherBlox Daily Observations layout. Learn more.

Left ArrowRight Arrow

31.84235, -102.49876

Hourly Observations for March 7, 2015

Temp ( °F °C ) Dew Point ( °F °C ) Humidity (%) Winds ( mph kmh ) Pressure ( in mb ) Visibility ( mi km ) Precip ( " mm )
12:53 am 00:53 Clear 40 4.4 26 -3.3 58 58 S 5 7 30.31 1027 10 16 0.00 0.00
1:53 am 01:53 Clear 38 3.3 25 -3.9 60 60 S 6 9 30.31 1026 10 16 0.00 0.00
2:53 am 02:53 Clear 37 2.8 25 -3.9 62 62 SSW 5 7 30.30 1026 10 16 0.00 0.00
3:53 am 03:53 Clear 36 2.2 24 -4.4 62 62 Calm 30.29 1026 10 16 0.00 0.00
4:53 am 04:53 Clear 36 2.2 23 -5 59 59 SE 5 7 30.28 1025 10 16 0.00 0.00
5:53 am 05:53 Clear 33 0.6 23 -5 66 66 E 8 13 30.29 1026 10 16 0.00 0.00
6:53 am 06:53 Clear 34 1.1 23 -5 64 64 ESE 8 13 30.29 1026 10 16 0.00 0.00
7:53 am 07:53 Sunny 36 2.2 24 -4.4 62 62 ESE 8 13 30.31 1026 10 16 0.00 0.00
8:53 am 08:53 Sunny 41 5 20 -6.7 43 43 SE 13 20 30.31 1026 10 16 0.00 0.00
9:53 am 09:53 Sunny 44 6.7 20 -6.7 38 38 SSE 14 22 30.31 1026 10 16 0.00 0.00
10:53 am 10:53 Sunny 47 8.3 23 -5 39 39 SSE 13 20 30.31 1027 10 16 0.00 0.00
11:53 am 11:53 Sunny 50 10 24 -4.4 36 36 VRB 7 11 30.29 1026 10 16 0.00 0.00
12:53 pm 12:53 Sunny 55 12.8 26 -3.3 33 33 S 9 15 30.26 1025 10 16 0.00 0.00
1:53 pm 13:53 Sunny 57 13.9 27 -2.8 32 32 S 14 22 30.22 1023 10 16 0.00 0.00
2:53 pm 14:53 Sunny 57 13.9 28 -2.2 33 33 S 12 19 30.17 1022 10 16 0.00 0.00
3:53 pm 15:53 Sunny 58 14.4 29 -1.7 33 33 S 10 17 30.17 1022 10 16 0.00 0.00
4:53 pm 16:53 Sunny 59 15 29 -1.7 32 32 SSE 14 22 30.14 1021 10 16 0.00 0.00
5:53 pm 17:53 Sunny 59 15 29 -1.7 32 32 S 8 13 30.14 1021 10 16 0.00 0.00
6:53 pm 18:53 Clear 57 13.9 31 -0.6 37 37 S 9 15 30.15 1021 10 16 0.00 0.00
7:53 pm 19:53 Clear 55 12.8 31 -0.6 40 40 S 13 20 30.18 1022 10 16 0.00 0.00
8:53 pm 20:53 Mostly Cloudy 53 11.7 29 -1.7 40 40 S 10 17 30.16 1021 10 16 0.00 0.00
9:53 pm 21:53 Clear 51 10.6 27 -2.8 39 39 SSE 13 20 30.16 1021 10 16 0.00 0.00
10:53 pm 22:53 Mostly Clear 49 9.4 25 -3.9 39 39 S 15 24 30.16 1022 10 16 0.00 0.00
11:53 pm 23:53 Mostly Clear 47 8.3 25 -3.9 42 42 S 10 17 30.13 1020 10 16 0.00 0.00

Powered by AerisWeather